Bar Harbor, ME

11:13 AM EST on December 06, 2019 (GMT -0500)
Hancock County-Bar Harbor

Weather History for KBHB - October, 2019

Change the Weather History Date:

Monday, October 28, 2019

  Actual Average Record
Temperature  
Mean Temperature 45 °F -  
Max Temperature 48 °F 54 °F 69 °F (1963)
Min Temperature 42 °F 37 °F 24 °F (1976)
Degree Days  
Heating Degree Days 20    
Moisture  
Dew Point 44 °F    
Average Humidity 91    
Maximum Humidity 100    
Minimum Humidity 83    
Precipitation  
Precipitation 0.14 in - - ()
Sea Level Pressure  
Sea Level Pressure 30.22 in    
Wind  
Wind Speed 7 mph (ENE)    
Max Wind Speed 12 mph    
Max Gust Speed 18 mph    
Visibility 9 miles    
Events Rain    
Averages and records for this station are not official NWS values.
T = Trace of Precipitation, MM = Missing Value Source: NWS Daily Summary

Daily Weather History Graph

Daily Weather History Graph

Search for Another Location

Airport or City:

Astronomy

Oct. 28, 2019 Rise Set
Actual Time 7:05 AM EDT 5:28 PM EDT
Civil Twilight 6:35 AM EDT 5:58 PM EDT
Nautical Twilight 6:00 AM EDT 6:32 PM EDT
Astronomical Twilight 5:27 AM EDT 7:06 PM EDT
Moon 7:21 AM EDT (10/28) 6:11 PM EDT (10/28)
Length of Visible Light 11h 23m
Length of Day
10h 23m
New Moon, 0% of the Moon is Illuminated
Oct 28
New Moon
Nov 4
First Quarter
Nov 12
Full
Nov 19
Last Quarter
Nov 26
New

Hourly Weather History & Observations

Time (EDT) Temp. Windchill Dew Point Humidity Pressure Visibility Wind Dir Wind Speed Gust Speed Precip Events Conditions
12:56 AM 46.0 °F 41.0 °F 44.1 °F 93% 29.97 in 7.0 mi ENE 10.4 mph 18.4 mph 0.04 in Rain Rain
1:56 AM 45.0 °F 40.1 °F 44.1 °F 97% 29.99 in 5.0 mi ENE 9.2 mph - 0.03 in Rain Light Rain
2:56 AM 45.0 °F 39.3 °F 44.1 °F 97% 29.99 in 8.0 mi ENE 11.5 mph 18.4 mph 0.02 in Rain Light Rain
3:56 AM 45.0 °F 39.3 °F 44.1 °F 97% 30.02 in 3.0 mi NE 11.5 mph - 0.03 in Rain Light Rain
4:56 AM 45.0 °F 40.1 °F 43.0 °F 93% 30.05 in 10.0 mi NE 9.2 mph - 0.02 in Rain Light Rain
5:56 AM 44.1 °F 38.6 °F 42.1 °F 93% 30.08 in 10.0 mi NE 10.4 mph - 0.00 in   Overcast
6:28 AM 42.8 °F 37.5 °F 42.8 °F 100% 30.09 in 10.0 mi NE 9.2 mph - N/A   Overcast
6:56 AM 43.0 °F 38.8 °F 42.1 °F 97% 30.12 in 10.0 mi NE 6.9 mph - 0.00 in Rain Light Rain
7:56 AM 43.0 °F 37.7 °F 42.1 °F 97% 30.17 in 9.0 mi NNE 9.2 mph - 0.00 in Rain Light Rain
8:09 AM 42.8 °F 37.5 °F 42.8 °F 100% 30.17 in 10.0 mi NNE 9.2 mph - 0.00 in Rain Light Rain
8:24 AM 44.6 °F 38.8 °F 42.8 °F 93% 30.17 in 9.0 mi NNE 11.5 mph - 0.00 in Rain Light Rain
8:56 AM 44.1 °F 39.5 °F 43.0 °F 96% 30.20 in 9.0 mi NNE 8.1 mph - 0.00 in Rain Light Rain
9:33 AM 44.6 °F 40.2 °F 42.8 °F 93% 30.20 in 10.0 mi NNE 8.1 mph - 0.00 in   Overcast
9:56 AM 46.0 °F 41.9 °F 44.1 °F 93% 30.22 in 10.0 mi NE 8.1 mph - 0.00 in   Overcast
10:29 AM 46.4 °F 42.9 °F 44.6 °F 93% 30.21 in 10.0 mi NE 6.9 mph - N/A   Overcast
10:56 AM 46.9 °F - 44.1 °F 90% 30.23 in 10.0 mi ENE 8.1 mph - N/A   Overcast
11:56 AM 48.0 °F - 44.1 °F 86% 30.24 in 10.0 mi ENE 5.8 mph - N/A   Overcast
12:28 PM 48.2 °F - 44.6 °F 87% 30.24 in 10.0 mi Variable 4.6 mph - N/A   Overcast
12:56 PM 48.0 °F - 44.1 °F 86% 30.25 in 10.0 mi East 4.6 mph - N/A   Overcast
1:56 PM 48.9 °F - 44.1 °F 83% 30.26 in 10.0 mi Variable 3.5 mph - N/A   Overcast
2:56 PM 48.0 °F - 45.0 °F 89% 30.27 in 10.0 mi ENE 3.5 mph - N/A   Overcast
3:26 PM 46.4 °F 45.2 °F 44.6 °F 93% 30.28 in 9.0 mi East 3.5 mph - N/A   Overcast
3:56 PM 48.0 °F - 45.0 °F 89% 30.30 in 10.0 mi Calm Calm - N/A   Overcast
4:18 PM 48.2 °F - 44.6 °F 87% 30.29 in 10.0 mi East 5.8 mph - N/A   Overcast
4:51 PM 46.4 °F - 44.6 °F 93% 30.30 in 9.0 mi Calm Calm - N/A   Overcast
4:56 PM 46.9 °F - 44.1 °F 90% 30.31 in 9.0 mi Calm Calm - N/A   Overcast
5:56 PM 46.9 °F - 44.1 °F 90% 30.32 in 10.0 mi Calm Calm - N/A   Overcast
6:56 PM 48.0 °F - 44.1 °F 86% 30.34 in 10.0 mi Calm Calm - N/A   Overcast
7:56 PM 48.0 °F - 43.0 °F 83% 30.35 in 10.0 mi Calm Calm - N/A   Overcast
8:56 PM 46.0 °F - 44.1 °F 93% 30.36 in 10.0 mi Calm Calm - N/A   Overcast
9:56 PM 46.9 °F - 43.0 °F 86% 30.37 in 10.0 mi South 3.5 mph - N/A   Overcast
10:56 PM 46.9 °F - 43.0 °F 86% 30.38 in 10.0 mi South 4.6 mph - N/A   Overcast
11:56 PM 46.9 °F - 43.0 °F 86% 30.38 in 10.0 mi Calm Calm - N/A   Overcast